Location: Hawks Ness
(60.2333°N, 1.1667°W)
Time: 05:58:15
(UTC+00:00)

Cosmos 1726 - Pass Details

Date: 27 January 2020
Orbit: 483 x 499 km, 82.5° (Epoch: 27 February)

Event Time Altitude Azimuth Distance (km) Brightness Sun altitude
Exits shadow 07:13:56 13° 293° (WNW) 1,500 3.9 -9.3°
Maximum altitude 07:14:45 14° 308° (NW) 1,459 3.9 -9.2°
Drops below altitude 10° 07:16:42 10° 340° (NNW) 1,683 4.4 -9.0°
Sets 07:19:43 0° 8° (N) 2,568 5.6 -8.6°
